Time,TemperatureF,DewpointF,PressureIn,WindDirection,WindDirectionDegrees,WindSpeedMPH,WindSpeedGustMPH,Humidity,HourlyPrecipIn,Conditions,Clouds,dailyrainin,SolarRadiationWatts/m^2,SoftwareType,DateUTC
2013-09-11 00:04:00,77.0,66.0,30.02,SW,217,0.0,0.0,69,0.00,,,0.00,0,Wunderground v.1.15,2013-09-10 21:04:00,
2013-09-11 00:14:00,76.9,66.4,30.01,SW,217,0.0,0.0,70,0.00,,,0.00,0,Wunderground v.1.15,2013-09-10 21:14:00,
2013-09-11 00:24:00,76.8,66.7,30.02,SW,217,0.0,0.0,71,0.00,,,0.00,0,Wunderground v.1.15,2013-09-10 21:24:00,
2013-09-11 00:34:00,76.7,66.6,30.01,SW,217,0.0,0.0,71,0.00,,,0.00,0,Wunderground v.1.15,2013-09-10 21:34:00,
2013-09-11 00:44:00,76.6,66.5,30.01,SW,217,0.0,0.0,71,0.00,,,0.00,0,Wunderground v.1.15,2013-09-10 21:44:00,
2013-09-11 00:54:00,76.4,66.7,30.01,SW,217,0.0,0.0,72,0.00,,,0.00,0,Wunderground v.1.15,2013-09-10 21:54:00,
2013-09-11 01:04:00,76.3,66.6,30.01,SW,217,0.0,0.0,72,0.00,,,0.00,0,Wunderground v.1.15,2013-09-10 22:04:00,
2013-09-11 01:14:00,76.2,66.5,30.01,SW,217,0.0,0.0,72,0.00,,,0.00,0,Wunderground v.1.15,2013-09-10 22:14:00,
2013-09-11 01:24:00,76.3,66.6,30.00,SW,217,0.0,0.0,72,0.00,,,0.00,0,Wunderground v.1.15,2013-09-10 22:24:00,
2013-09-11 01:34:00,76.2,66.5,30.00,SW,217,0.0,0.0,72,0.00,,,0.00,0,Wunderground v.1.15,2013-09-10 22:34:00,
2013-09-11 01:44:00,76.0,66.7,30.00,SW,217,0.0,0.0,73,0.00,,,0.00,0,Wunderground v.1.15,2013-09-10 22:44:00,
2013-09-11 01:54:00,75.9,66.6,30.00,SW,217,0.0,0.0,73,0.00,,,0.00,0,Wunderground v.1.15,2013-09-10 22:54:00,
2013-09-11 02:04:00,75.9,66.6,30.00,SW,217,0.0,0.0,73,0.00,,,0.00,0,Wunderground v.1.15,2013-09-10 23:04:00,
2013-09-11 02:14:00,75.9,66.6,30.00,SW,217,0.0,0.0,73,0.00,,,0.00,0,Wunderground v.1.15,2013-09-10 23:14:00,
2013-09-11 02:24:00,75.8,66.5,30.00,SW,217,0.0,0.0,73,0.00,,,0.00,0,Wunderground v.1.15,2013-09-10 23:24:00,
2013-09-11 02:34:00,75.7,66.4,30.00,SW,217,0.0,0.0,73,0.00,,,0.00,0,Wunderground v.1.15,2013-09-10 23:34:00,
2013-09-11 02:44:00,75.8,66.5,30.00,SW,217,0.0,0.0,73,0.00,,,0.00,0,Wunderground v.1.15,2013-09-10 23:44:00,
2013-09-11 02:54:00,75.7,66.4,30.00,SW,217,0.0,0.0,73,0.00,,,0.00,0,Wunderground v.1.15,2013-09-10 23:54:00,
2013-09-11 03:04:00,75.5,66.2,30.00,SW,217,0.0,0.0,73,0.00,,,0.00,0,Wunderground v.1.15,2013-09-11 00:04:00,
2013-09-11 03:14:00,75.3,66.4,29.99,SW,217,0.0,0.0,74,0.00,,,0.00,0,Wunderground v.1.15,2013-09-11 00:14:00,
2013-09-11 03:24:00,75.5,66.2,29.99,SW,217,0.0,0.0,73,0.00,,,0.00,0,Wunderground v.1.15,2013-09-11 00:24:00,
2013-09-11 03:30:00,75.5,65.8,29.99,SW,217,0.0,0.0,72,0.00,,,0.00,0,Wunderground v.1.15,2013-09-11 00:30:00,
2013-09-11 03:44:00,75.5,65.8,29.99,SW,217,0.0,0.0,72,0.00,,,0.00,0,Wunderground v.1.15,2013-09-11 00:44:00,
2013-09-11 03:54:00,75.3,66.0,29.99,SW,217,0.0,0.0,73,0.00,,,0.00,0,Wunderground v.1.15,2013-09-11 00:54:00,
2013-09-11 04:04:00,75.1,65.9,29.98,SW,217,0.0,0.0,73,0.00,,,0.00,0,Wunderground v.1.15,2013-09-11 01:04:00,
2013-09-11 04:14:00,75.1,65.9,29.98,SW,217,0.0,0.0,73,0.00,,,0.00,0,Wunderground v.1.15,2013-09-11 01:14:00,
2013-09-11 04:24:00,75.0,65.4,29.98,SW,217,0.0,0.0,72,0.00,,,0.00,0,Wunderground v.1.15,2013-09-11 01:24:00,
2013-09-11 04:34:00,74.9,65.3,29.98,SW,217,0.0,0.0,72,0.00,,,0.00,0,Wunderground v.1.15,2013-09-11 01:34:00,
2013-09-11 04:44:00,74.7,65.1,29.98,SW,217,0.0,0.0,72,0.00,,,0.00,0,Wunderground v.1.15,2013-09-11 01:44:00,
2013-09-11 04:54:00,74.7,65.1,29.98,SW,217,0.0,1.0,72,0.00,,,0.00,0,Wunderground v.1.15,2013-09-11 01:54:00,
2013-09-11 05:04:00,74.6,64.6,29.98,SW,217,0.0,0.0,71,0.00,,,0.00,0,Wunderground v.1.15,2013-09-11 02:04:00,
2013-09-11 05:14:00,74.4,64.0,29.98,SW,217,0.0,0.0,70,0.00,,,0.00,0,Wunderground v.1.15,2013-09-11 02:14:00,
2013-09-11 05:24:00,74.4,63.6,29.98,SW,217,0.0,0.0,69,0.00,,,0.00,0,Wunderground v.1.15,2013-09-11 02:24:00,
2013-09-11 05:34:00,74.2,63.0,29.98,SW,217,0.0,0.0,68,0.00,,,0.00,0,Wunderground v.1.15,2013-09-11 02:34:00,
2013-09-11 05:44:00,74.0,63.2,29.98,SW,217,0.0,0.0,69,0.00,,,0.00,0,Wunderground v.1.15,2013-09-11 02:44:00,
2013-09-11 05:54:00,73.8,61.7,29.98,SW,217,0.0,0.0,66,0.00,,,0.00,0,Wunderground v.1.15,2013-09-11 02:54:00,
2013-09-11 06:04:00,73.7,62.1,29.98,SW,217,0.0,0.0,67,0.00,,,0.00,0,Wunderground v.1.15,2013-09-11 03:04:00,
2013-09-11 06:14:00,73.7,62.5,29.98,SW,217,0.0,0.0,68,0.00,,,0.00,0,Wunderground v.1.15,2013-09-11 03:14:00,
2013-09-11 06:24:00,73.7,62.5,29.98,SW,217,0.0,0.0,68,0.00,,,0.00,0,Wunderground v.1.15,2013-09-11 03:24:00,
2013-09-11 06:34:00,73.9,63.1,29.97,SW,217,0.0,0.0,69,0.00,,,0.00,0,Wunderground v.1.15,2013-09-11 03:34:00,
2013-09-11 06:44:00,73.9,63.1,29.98,SW,217,0.0,0.0,69,0.00,,,0.00,0,Wunderground v.1.15,2013-09-11 03:44:00,
2013-09-11 06:54:00,74.0,63.2,29.98,SW,217,0.0,0.0,69,0.00,,,0.00,0,Wunderground v.1.15,2013-09-11 03:54:00,
2013-09-11 07:04:00,73.9,62.7,29.98,SW,217,0.0,0.0,68,0.00,,,0.00,0,Wunderground v.1.15,2013-09-11 04:04:00,
2013-09-11 07:14:00,73.6,61.5,29.98,SW,217,0.0,0.0,66,0.00,,,0.00,11,Wunderground v.1.15,2013-09-11 04:14:00,
2013-09-11 07:24:00,73.5,61.0,29.99,SW,217,0.0,0.0,65,0.00,,,0.00,19,Wunderground v.1.15,2013-09-11 04:24:00,
2013-09-11 07:34:00,73.5,60.6,29.99,SW,217,0.0,0.0,64,0.00,,,0.00,30,Wunderground v.1.15,2013-09-11 04:34:00,
2013-09-11 07:45:00,73.9,61.0,29.99,SW,217,0.0,0.0,64,0.00,,,0.00,54,Wunderground v.1.15,2013-09-11 04:45:00,
2013-09-11 07:54:00,74.7,61.7,29.99,SW,217,0.0,0.0,64,0.00,,,0.00,77,Wunderground v.1.15,2013-09-11 04:54:00,
2013-09-11 08:04:00,75.7,62.2,29.99,SW,217,0.0,0.0,63,0.00,,,0.00,105,Wunderground v.1.15,2013-09-11 05:04:00,
2013-09-11 08:14:00,77.4,62.9,29.99,SW,217,0.0,0.0,61,0.00,,,0.00,134,Wunderground v.1.15,2013-09-11 05:14:00,
2013-09-11 08:24:00,77.9,62.9,29.99,SW,217,0.0,0.0,60,0.00,,,0.00,160,Wunderground v.1.15,2013-09-11 05:24:00,
2013-09-11 08:34:00,78.8,63.3,29.99,SW,217,0.0,0.0,59,0.00,,,0.00,190,Wunderground v.1.15,2013-09-11 05:34:00,
2013-09-11 08:44:00,79.6,64.0,29.98,SW,217,0.0,0.0,59,0.00,,,0.00,220,Wunderground v.1.15,2013-09-11 05:44:00,
2013-09-11 08:54:00,80.3,64.7,29.99,SW,217,0.0,0.0,59,0.00,,,0.00,246,Wunderground v.1.15,2013-09-11 05:54:00,
2013-09-11 09:04:00,80.9,64.2,29.99,SW,217,0.0,0.0,57,0.00,,,0.00,274,Wunderground v.1.15,2013-09-11 06:04:00,
2013-09-11 09:14:00,81.2,64.5,29.99,SW,217,0.0,0.0,57,0.00,,,0.00,304,Wunderground v.1.15,2013-09-11 06:14:00,
2013-09-11 09:24:00,81.5,64.3,29.99,SW,217,0.0,0.0,56,0.00,,,0.00,329,Wunderground v.1.15,2013-09-11 06:24:00,
2013-09-11 09:34:00,81.8,64.6,30.00,SW,217,0.0,0.0,56,0.00,,,0.00,357,Wunderground v.1.15,2013-09-11 06:34:00,
2013-09-11 09:44:00,81.8,64.6,30.00,SW,217,0.0,0.0,56,0.00,,,0.00,385,Wunderground v.1.15,2013-09-11 06:44:00,
2013-09-11 09:54:00,81.3,64.1,30.00,SW,217,1.0,1.0,56,0.00,,,0.00,417,Wunderground v.1.15,2013-09-11 06:54:00,
2013-09-11 10:04:00,81.0,64.3,30.00,SW,217,1.0,1.0,57,0.00,,,0.00,441,Wunderground v.1.15,2013-09-11 07:04:00,
2013-09-11 10:14:00,81.5,64.3,30.00,SW,217,1.0,1.0,56,0.00,,,0.00,469,Wunderground v.1.15,2013-09-11 07:14:00,
2013-09-11 10:24:00,81.4,64.7,30.00,SW,217,1.0,1.0,57,0.00,,,0.00,494,Wunderground v.1.15,2013-09-11 07:24:00,
2013-09-11 10:34:00,81.7,65.5,30.01,SW,217,1.0,1.0,58,0.00,,,0.00,515,Wunderground v.1.15,2013-09-11 07:34:00,
2013-09-11 10:44:00,81.3,65.1,30.01,SW,217,2.0,4.0,58,0.00,,,0.00,543,Wunderground v.1.15,2013-09-11 07:44:00,
2013-09-11 10:54:00,81.4,65.2,30.00,SW,217,1.0,1.0,58,0.00,,,0.00,568,Wunderground v.1.15,2013-09-11 07:54:00,
2013-09-11 11:04:00,82.2,66.0,30.00,SW,217,1.0,1.0,58,0.00,,,0.00,592,Wunderground v.1.15,2013-09-11 08:04:00,
2013-09-11 11:14:00,82.3,66.0,30.00,SW,217,2.0,2.0,58,0.00,,,0.00,612,Wunderground v.1.15,2013-09-11 08:14:00,
2013-09-11 11:24:00,82.9,67.1,30.00,SW,217,1.0,1.0,59,0.00,,,0.00,628,Wunderground v.1.15,2013-09-11 08:24:00,
2013-09-11 11:34:00,83.2,66.9,30.00,SW,217,1.0,1.0,58,0.00,,,0.00,650,Wunderground v.1.15,2013-09-11 08:34:00,
2013-09-11 11:44:00,83.4,67.6,30.00,SW,217,1.0,1.0,59,0.00,,,0.00,666,Wunderground v.1.15,2013-09-11 08:44:00,
2013-09-11 11:54:00,83.4,66.1,30.00,SW,217,1.0,2.0,56,0.00,,,0.00,682,Wunderground v.1.15,2013-09-11 08:54:00,
2013-09-11 12:04:00,83.6,64.7,29.99,SW,217,2.0,2.0,53,0.00,,,0.00,694,Wunderground v.1.15,2013-09-11 09:04:00,
2013-09-11 12:14:00,83.4,63.9,29.99,SW,217,2.0,4.0,52,0.00,,,0.00,707,Wunderground v.1.15,2013-09-11 09:14:00,
2013-09-11 12:24:00,83.6,65.7,29.99,SW,217,2.0,2.0,55,0.00,,,0.00,717,Wunderground v.1.15,2013-09-11 09:24:00,
2013-09-11 12:34:00,83.5,69.1,29.99,SW,217,2.0,2.0,62,0.00,,,0.00,726,Wunderground v.1.15,2013-09-11 09:34:00,
2013-09-11 12:45:00,82.7,69.7,29.99,SW,217,2.0,2.0,65,0.00,,,0.00,735,Wunderground v.1.15,2013-09-11 09:45:00,
2013-09-11 12:54:00,82.2,70.1,29.99,SW,217,3.0,6.0,67,0.00,,,0.00,737,Wunderground v.1.15,2013-09-11 09:54:00,
2013-09-11 13:04:00,82.1,69.2,29.99,SW,217,2.0,2.0,65,0.00,,,0.00,744,Wunderground v.1.15,2013-09-11 10:04:00,
2013-09-11 13:14:00,81.8,69.3,29.99,SW,217,4.0,5.0,66,0.00,,,0.00,747,Wunderground v.1.15,2013-09-11 10:14:00,
2013-09-11 13:24:00,81.7,70.1,29.98,SW,217,4.0,4.0,68,0.00,,,0.00,745,Wunderground v.1.15,2013-09-11 10:24:00,
2013-09-11 13:34:00,81.6,71.3,29.98,SW,217,4.0,4.0,71,0.00,,,0.00,747,Wunderground v.1.15,2013-09-11 10:34:00,
2013-09-11 13:45:00,80.5,70.2,29.98,SSW,209,6.0,6.0,71,0.00,,,0.00,747,Wunderground v.1.15,2013-09-11 10:45:00,
2013-09-11 13:54:00,81.4,68.9,29.97,SSW,209,5.0,5.0,66,0.00,,,0.00,745,Wunderground v.1.15,2013-09-11 10:54:00,
2013-09-11 14:04:00,82.6,69.6,29.97,SSW,209,3.0,3.0,65,0.00,,,0.00,744,Wunderground v.1.15,2013-09-11 11:04:00,
2013-09-11 14:14:00,83.3,66.5,29.97,SSW,209,4.0,4.0,57,0.00,,,0.00,738,Wunderground v.1.15,2013-09-11 11:14:00,
2013-09-11 14:24:00,83.5,66.7,29.96,SW,216,3.0,4.0,57,0.00,,,0.00,733,Wunderground v.1.15,2013-09-11 11:24:00,
2013-09-11 14:34:00,82.7,70.2,29.96,SW,216,5.0,6.0,66,0.00,,,0.00,719,Wunderground v.1.15,2013-09-11 11:34:00,
2013-09-11 14:44:00,82.3,69.4,29.96,SW,219,5.0,5.0,65,0.00,,,0.00,707,Wunderground v.1.15,2013-09-11 11:44:00,
2013-09-11 14:54:00,82.7,68.8,29.96,SW,219,3.0,5.0,63,0.00,,,0.00,696,Wunderground v.1.15,2013-09-11 11:54:00,
2013-09-11 15:04:00,83.1,69.7,29.95,SW,220,4.0,4.0,64,0.00,,,0.00,677,Wunderground v.1.15,2013-09-11 12:04:00,
2013-09-11 15:14:00,83.4,69.0,29.95,SW,222,4.0,8.0,62,0.00,,,0.00,663,Wunderground v.1.15,2013-09-11 12:14:00,
2013-09-11 15:24:00,83.1,68.3,29.95,SW,219,5.0,5.0,61,0.00,,,0.00,647,Wunderground v.1.15,2013-09-11 12:24:00,
2013-09-11 15:34:00,84.3,69.4,29.95,SW,219,3.0,5.0,61,0.00,,,0.00,629,Wunderground v.1.15,2013-09-11 12:34:00,
2013-09-11 15:44:00,84.3,67.9,29.95,SW,219,3.0,4.0,58,0.00,,,0.00,605,Wunderground v.1.15,2013-09-11 12:44:00,
2013-09-11 15:54:00,84.2,68.8,29.95,SW,218,3.0,3.0,60,0.00,,,0.00,580,Wunderground v.1.15,2013-09-11 12:54:00,
2013-09-11 16:04:00,84.1,67.7,29.95,SW,218,3.0,3.0,58,0.00,,,0.00,563,Wunderground v.1.15,2013-09-11 13:04:00,
2013-09-11 16:14:00,84.0,70.5,29.95,SW,218,3.0,4.0,64,0.00,,,0.00,534,Wunderground v.1.15,2013-09-11 13:14:00,
2013-09-11 16:24:00,84.4,70.9,29.95,SW,218,2.0,2.0,64,0.00,,,0.00,513,Wunderground v.1.15,2013-09-11 13:24:00,
2013-09-11 16:34:00,83.4,69.0,29.95,SW,218,2.0,5.0,62,0.00,,,0.00,485,Wunderground v.1.15,2013-09-11 13:34:00,
2013-09-11 16:44:00,83.7,69.3,29.95,SW,218,2.0,4.0,62,0.00,,,0.00,461,Wunderground v.1.15,2013-09-11 13:44:00,
2013-09-11 16:54:00,83.9,69.5,29.94,SW,218,3.0,6.0,62,0.00,,,0.00,434,Wunderground v.1.15,2013-09-11 13:54:00,
2013-09-11 17:04:00,83.8,68.9,29.93,SSW,212,4.0,7.0,61,0.00,,,0.00,406,Wunderground v.1.15,2013-09-11 14:04:00,
2013-09-11 17:14:00,82.5,68.2,29.93,SSW,200,5.0,6.0,62,0.00,,,0.00,378,Wunderground v.1.15,2013-09-11 14:14:00,
2013-09-11 17:24:00,83.5,67.7,29.93,SSW,201,5.0,6.0,59,0.00,,,0.00,346,Wunderground v.1.15,2013-09-11 14:24:00,
2013-09-11 17:34:00,84.4,67.0,29.94,SSW,202,3.0,3.0,56,0.00,,,0.00,318,Wunderground v.1.15,2013-09-11 14:34:00,
2013-09-11 17:45:00,84.2,66.8,29.94,SSW,207,4.0,4.0,56,0.00,,,0.00,287,Wunderground v.1.15,2013-09-11 14:45:00,
2013-09-11 17:54:00,83.3,68.0,29.94,SSW,207,4.0,4.0,60,0.00,,,0.00,255,Wunderground v.1.15,2013-09-11 14:54:00,
2013-09-11 18:04:00,82.8,68.4,29.94,SSW,207,3.0,3.0,62,0.00,,,0.00,227,Wunderground v.1.15,2013-09-11 15:04:00,
2013-09-11 18:14:00,82.3,69.4,29.94,SSW,207,4.0,7.0,65,0.00,,,0.00,195,Wunderground v.1.15,2013-09-11 15:14:00,
2013-09-11 18:24:00,81.6,68.7,29.94,SSW,205,6.0,6.0,65,0.00,,,0.00,165,Wunderground v.1.15,2013-09-11 15:24:00,
2013-09-11 18:34:00,81.8,68.0,29.94,SSW,208,4.0,4.0,63,0.00,,,0.00,132,Wunderground v.1.15,2013-09-11 15:34:00,
2013-09-11 18:45:00,82.0,68.6,29.94,SSW,209,3.0,5.0,64,0.00,,,0.00,93,Wunderground v.1.15,2013-09-11 15:45:00,
2013-09-11 18:54:00,81.6,68.7,29.94,SSW,209,4.0,4.0,65,0.00,,,0.00,67,Wunderground v.1.15,2013-09-11 15:54:00,
2013-09-11 19:04:00,81.1,68.2,29.94,SSW,205,5.0,5.0,65,0.00,,,0.00,32,Wunderground v.1.15,2013-09-11 16:04:00,
2013-09-11 19:14:00,80.9,68.5,29.94,SSW,205,3.0,5.0,66,0.00,,,0.00,16,Wunderground v.1.15,2013-09-11 16:14:00,
2013-09-11 19:24:00,80.8,67.9,29.94,SSW,205,4.0,4.0,65,0.00,,,0.00,14,Wunderground v.1.15,2013-09-11 16:24:00,
2013-09-11 19:34:00,80.9,67.6,29.94,SSW,205,3.0,6.0,64,0.00,,,0.00,7,Wunderground v.1.15,2013-09-11 16:34:00,
2013-09-11 19:44:00,80.8,67.5,29.94,SSW,205,3.0,3.0,64,0.00,,,0.00,0,Wunderground v.1.15,2013-09-11 16:44:00,
2013-09-11 19:54:00,80.5,67.6,29.94,SSW,205,3.0,3.0,65,0.00,,,0.00,0,Wunderground v.1.15,2013-09-11 16:54:00,
2013-09-11 20:04:00,80.4,68.0,29.95,SSW,205,1.0,2.0,66,0.00,,,0.00,0,Wunderground v.1.15,2013-09-11 17:04:00,
2013-09-11 20:15:00,80.3,67.5,29.94,SSW,205,1.0,1.0,65,0.00,,,0.00,0,Wunderground v.1.15,2013-09-11 17:15:00,
2013-09-11 20:24:00,80.3,67.0,29.95,SSW,205,1.0,1.0,64,0.00,,,0.00,0,Wunderground v.1.15,2013-09-11 17:24:00,
2013-09-11 20:34:00,80.3,66.6,29.94,SSW,205,0.0,0.0,63,0.00,,,0.00,0,Wunderground v.1.15,2013-09-11 17:34:00,
2013-09-11 20:44:00,80.3,66.6,29.95,SSW,205,2.0,2.0,63,0.00,,,0.00,0,Wunderground v.1.15,2013-09-11 17:44:00,
2013-09-11 20:54:00,80.3,66.1,29.95,SSW,205,1.0,2.0,62,0.00,,,0.00,0,Wunderground v.1.15,2013-09-11 17:54:00,
2013-09-11 21:04:00,80.4,66.2,29.95,SSW,205,1.0,1.0,62,0.00,,,0.00,0,Wunderground v.1.15,2013-09-11 18:04:00,
2013-09-11 21:15:00,80.4,66.2,29.95,SSW,205,0.0,0.0,62,0.00,,,0.00,0,Wunderground v.1.15,2013-09-11 18:15:00,
2013-09-11 21:24:00,80.5,65.8,29.95,SSW,205,0.0,0.0,61,0.00,,,0.00,0,Wunderground v.1.15,2013-09-11 18:24:00,
2013-09-11 21:34:00,80.5,66.3,29.95,SSW,205,0.0,0.0,62,0.00,,,0.00,0,Wunderground v.1.15,2013-09-11 18:34:00,
2013-09-11 21:44:00,80.3,66.1,29.95,SSW,205,0.0,0.0,62,0.00,,,0.00,0,Wunderground v.1.15,2013-09-11 18:44:00,
2013-09-11 21:54:00,80.3,66.1,29.95,SSW,205,0.0,0.0,62,0.00,,,0.00,0,Wunderground v.1.15,2013-09-11 18:54:00,
2013-09-11 22:04:00,80.2,66.0,29.96,SSW,205,0.0,0.0,62,0.00,,,0.00,0,Wunderground v.1.15,2013-09-11 19:04:00,
2013-09-11 22:14:00,80.2,66.0,29.96,SSW,205,0.0,0.0,62,0.00,,,0.00,0,Wunderground v.1.15,2013-09-11 19:14:00,
2013-09-11 22:24:00,80.2,66.0,29.95,SSW,205,0.0,0.0,62,0.00,,,0.00,0,Wunderground v.1.15,2013-09-11 19:24:00,
2013-09-11 22:34:00,80.1,66.4,29.95,SSW,205,1.0,1.0,63,0.00,,,0.00,0,Wunderground v.1.15,2013-09-11 19:34:00,
2013-09-11 22:44:00,80.0,66.7,29.95,SSW,205,0.0,1.0,64,0.00,,,0.00,0,Wunderground v.1.15,2013-09-11 19:44:00,
2013-09-11 22:54:00,79.8,66.5,29.95,SSW,205,1.0,1.0,64,0.00,,,0.00,0,Wunderground v.1.15,2013-09-11 19:54:00,
2013-09-11 23:04:00,79.8,65.6,29.95,SSW,205,2.0,4.0,62,0.00,,,0.00,0,Wunderground v.1.15,2013-09-11 20:04:00,
2013-09-11 23:14:00,79.8,65.2,29.95,SSW,205,2.0,2.0,61,0.00,,,0.00,0,Wunderground v.1.15,2013-09-11 20:14:00,
2013-09-11 23:24:00,79.9,65.2,29.95,SSW,205,0.0,0.0,61,0.00,,,0.00,0,Wunderground v.1.15,2013-09-11 20:24:00,
2013-09-11 23:34:00,79.9,65.2,29.95,SSW,205,0.0,0.0,61,0.00,,,0.00,0,Wunderground v.1.15,2013-09-11 20:34:00,
2013-09-11 23:44:00,79.9,65.2,29.95,SSW,205,1.0,1.0,61,0.00,,,0.00,0,Wunderground v.1.15,2013-09-11 20:44:00,
2013-09-11 23:54:00,80.0,64.9,29.95,SSW,205,1.0,1.0,60,0.00,,,0.00,0,Wunderground v.1.15,2013-09-11 20:54:00,